[[{"header":{"parameterUnit":"m.s-1","parameterCategory":1,"la1":30.2991,"la2":30.254,"lo1":-89.0895,"lo2":-89.0444,"dy":0.0017,"dx":0.0017,"nx":28,"ny":28,"refTime":"2023-09-19T03:00:00:Z","depth":0,"parameterNumber":2,"parameterNumberName":"U-component_of_WINDS"},"data":[0,0,0,0,0,0,0,0,0,0,0,0,0,0,0,0,0,0,0,0,0,0,0,0,0,0,0,0,0,0,0,0,0,0,0,0,0,0,0,0,0,0,0,0,0,0,0,0,0,0,0,0,0,0,0,0,0,0,-2.4177,-2.4178,0,-2.427,-2.4271,-2.4272,-2.4276,-2.4275,-2.4274,-2.4273,-2.437,-2.4373,-2.4377,0,0,0,0,0,0,0,0,0,0,0,0,0,-2.4005,-2.4008,-2.4177,-2.4178,-2.4179,-2.427,-2.4271,-2.4273,-2.4277,-2.4275,-2.4274,-2.4273,-2.4368,-2.4373,-2.4377,0,0,0,0,0,0,0,0,0,0,0,0,0,-2.4087,-2.4009,-2.4177,-2.4192,-2.4195,-2.427,-2.4271,-2.4273,-2.4277,-2.4275,-2.4274,-2.4272,-2.4367,-2.4372,-2.4378,-2.4444,0,0,-2.4394,-2.4396,0,0,0,0,0,0,0,0,-2.4082,-2.4093,-2.4189,-2.4191,-2.4194,-2.426,-2.4246,-2.433,-2.4277,-2.4246,-2.4273,-2.4271,-2.4335,-2.4342,-2.4364,-2.4448,-2.4452,-2.4394,-2.4398,-2.44,-2.4402,0,0,0,0,0,0,0,-2.4077,-2.4089,-2.4214,-2.419,-2.4194,-2.4195,-2.4205,-2.4262,-2.4298,-2.4248,-2.4249,-2.426,-2.4336,-2.4358,-2.4366,-2.4454,-2.4394,-2.4399,-2.4402,-2.4405,-2.4598,-2.46,0,0,0,0,0,0,-2.4068,-2.4085,-2.4211,-2.4217,-2.4133,-2.42,-2.4211,-2.4241,-2.4298,-2.4305,-2.4261,-2.426,-2.435,-2.436,-2.4369,-2.445,-2.44,-2.4405,-2.4408,-2.4596,-2.4598,-2.46,0,0,0,0,0,0,-2.4064,-2.4079,-2.4207,-2.4151,-2.4167,-2.4204,-2.4238,-2.4243,-2.4266,-2.4307,-2.4314,-2.4277,-2.4349,-2.4362,-2.4425,-2.4454,-2.4407,-2.4412,-2.4594,-2.4597,-2.4599,-2.4613,0,0,0,0,0,0,-2.4059,-2.4078,-2.4103,-2.4151,-2.417,-2.4261,-2.424,-2.4246,-2.4275,-2.4274,-2.4324,-2.4331,-2.4349,-2.4417,-2.4431,-2.446,-2.4417,-2.4591,-2.4595,-2.4599,-2.461,-2.4616,-2.4621,0,0,0,0,0,-2.4053,-2.4103,-2.4104,-2.4119,-2.4202,-2.4263,-2.4273,-2.4292,-2.4277,-2.4303,-2.433,-2.433,-2.4449,-2.4424,-2.4439,-2.447,-2.459,-2.4594,-2.4598,-2.4607,-2.4614,-2.462,0,0,0,0,0,0,-2.4056,-2.4109,-2.4111,-2.4178,-2.4216,-2.4263,-2.4296,-2.4299,-2.4342,-2.4339,-2.4362,-2.4373,-2.4436,-2.446,-2.4431,-2.4538,-2.4518,-2.4525,-2.4519,-2.4526,-2.4532,-2.4524,-2.4421,0,0,0,0,0,-2.4065,-2.4109,-2.4153,-2.4208,-2.4227,-2.4258,-2.4285,-2.4297,-2.4337,-2.4353,-2.4384,-2.4423,-2.447,-2.45,-2.4545,-2.4614,-2.4625,-2.4643,-2.4649,-2.4653,-2.4659,-2.4697,-2.4706,-2.4615,-2.4615,-2.4614,0,0,-2.4083,-2.4118,-2.4144,-2.421,-2.424,-2.4286,-2.4272,-2.432,-2.4355,-2.436,-2.4422,-2.4447,-2.4492,-2.4559,-2.459,-2.458,-2.4687,-2.4659,-2.4662,-2.4665,-2.4703,-2.4711,-2.4719,-2.4618,-2.4617,-2.4617,0,0,-2.4139,-2.417,-2.4219,-2.425,-2.4296,-2.4317,-2.4329,-2.4376,-2.4392,-2.4455,-2.446,-2.4502,-2.4581,-2.4613,-2.464,-2.4709,-2.4711,-2.4724,-2.4751,-2.4788,-2.4795,-2.4802,-2.4826,-2.4834,-2.473,-2.473,-2.473,0,-2.4156,-2.4224,-2.4244,-2.4292,-2.4321,-2.4329,-2.4379,-2.4408,-2.4467,-2.4487,-2.4476,-2.4576,-2.4608,-2.4682,-2.4699,-2.4721,-2.4735,-2.4717,-2.4793,-2.4799,-2.4806,-2.4829,-2.4838,-2.4731,-2.4731,-2.4731,-2.473,0,-2.4242,-2.4289,-2.4323,-2.4379,-2.4413,-2.4462,-2.4489,-2.4521,-2.453,-2.4552,-2.4616,-2.4654,-2.4706,-2.4725,-2.4735,-2.4801,-2.4794,-2.4788,-2.4768,-2.4815,-2.4837,-2.4847,-2.4732,-2.4732,-2.4732,-2.4731,0,0,-2.4301,-2.4368,-2.438,-2.4406,-2.4458,-2.4495,-2.4546,-2.4597,-2.4623,-2.4664,-2.4706,-2.4774,-2.4769,-2.4799,-2.4813,-2.4846,-2.4898,-2.4836,-2.4837,-2.4845,-2.4973,-2.4976,-2.4986,-2.49,-2.4902,-2.4903,-2.4969,0,-2.4362,-2.445,-2.4469,-2.4545,-2.4589,-2.4598,-2.4642,-2.4679,-2.4702,-2.4743,-2.4768,-2.4815,-2.4805,-2.4824,-2.4857,-2.4884,-2.4924,-2.488,-2.4939,-2.4941,-2.4926,-2.4998,-2.5001,-2.5061,-2.4978,-2.4979,-2.498,0,-2.4444,-2.4486,-2.4566,-2.4613,-2.4632,-2.4671,-2.472,-2.4759,-2.4802,-2.4816,-2.4851,-2.4861,-2.4914,-2.4893,-2.4966,-2.4936,-2.4962,-2.498,-2.4983,-2.4988,-2.4962,-2.5004,-2.5081,-2.5089,-2.4994,-2.4993,-2.4992,0,-2.4478,-2.4555,-2.4613,-2.4635,-2.4691,-2.4718,-2.4743,-2.4784,-2.4814,-2.4857,-2.4877,-2.4926,-2.4953,-2.4991,-2.5014,-2.4997,-2.5086,-2.5067,-2.5099,-2.5099,-2.5116,-2.5114,-2.5197,-2.5135,-2.5135,-2.5135,-2.5135,0,-2.4543,-2.4591,-2.4629,-2.4664,-2.4719,-2.4742,-2.4796,-2.4821,-2.4858,-2.4899,-2.491,-2.4949,-2.4978,-2.5021,-2.504,-2.5098,-2.5111,-2.5123,-2.5128,-2.5122,-2.512,-2.5138,-2.5134,-2.5137,-2.5137,-2.5136,-2.5136,0,-2.4589,-2.4616,-2.468,-2.4728,-2.4741,-2.4779,-2.4821,-2.4856,-2.488,-2.4931,-2.4945,-2.4982,-2.5032,-2.506,-2.5125,-2.5138,-2.5202,-2.5205,-2.5187,-2.5189,-2.5219,-2.5215,-2.5315,-2.5329,-2.5259,-2.5259,-2.526,0,-2.4628,-2.4665,-2.4718,-2.4745,-2.4771,-2.4816,-2.4846,-2.4871,-2.4902,-2.4954,-2.4983,-2.5035,-2.5077,-2.5159,-2.5191,-2.5241,-2.5244,-2.5276,-2.5251,-2.5244,-2.5243,-2.524,-2.5244,-2.5279,-2.528,-2.528,-2.5281,0,-2.4694,-2.4706,-2.4748,-2.4797,-2.4832,-2.4871,-2.491,-2.4933,-2.4964,-2.4999,-2.5051,-2.5084,-2.5149,-2.52,-2.5253,-2.5279,-2.5285,-2.5289,-2.5299,-2.5292,-2.528,-2.5286,-2.5197,-2.5286,-2.5285,-2.5285,-2.5285,-2.5284,-2.4737,-2.4771,-2.4813,-2.486,-2.4892,-2.4928,-2.4964,-2.4991,-2.5035,-2.5089,-2.5102,-2.5157,-2.52,-2.527,-2.5298,-2.5342,-2.5336,-2.5351,-2.5354,-2.5357,-2.5358,-2.5274,-2.5352,-2.5352,-2.5352,-2.5352,-2.5352,0,-2.4803,-2.4831,-2.4874,-2.4928,-2.4966,-2.4968,-2.5012,-2.5043,-2.5091,-2.513,-2.5172,-2.5232,-2.5282,-2.5319,-2.537,-2.5398,-2.5402,-2.541,-2.5408,-2.5414,-2.5361,-2.5346,-2.5406,-2.5406,-2.5406,-2.5406,-2.5406,-2.5406,-2.4842,-2.4898,-2.4915,-2.4988,-2.5016,-2.5069,-2.5093,-2.5127,-2.5158,-2.5225,-2.5266,-2.529,-2.5328,-2.5383,-2.5429,-2.5439,-2.5456,-2.5464,-2.5474,-2.5423,-2.5418,-2.5412,-2.5399,-2.5468,-2.5468,-2.5524,-2.5524,-2.5525]},{"header":{"parameterUnit":"m.s-1","parameterCategory":1,"la1":30.2991,"la2":30.254,"lo1":-89.0895,"lo2":-89.0444,"dy":0.0017,"dx":0.0017,"nx":28,"ny":28,"refTime":"2023-09-19T03:00:00:Z","depth":0,"parameterNumber":3,"parameterNumberName":"V-component_of_WINDS"},"data":[0,0,0,0,0,0,0,0,0,0,0,0,0,0,0,0,0,0,0,0,0,0,0,0,0,0,0,0,0,0,0,0,0,0,0,0,0,0,0,0,0,0,0,0,0,0,0,0,0,0,0,0,0,0,0,0,0,0,2.7663,2.7664,0,2.7743,2.7743,2.7744,2.7807,2.7808,2.7808,2.7809,2.7886,2.7888,2.7889,0,0,0,0,0,0,0,0,0,0,0,0,0,2.7562,2.7563,2.7663,2.7664,2.7665,2.7742,2.7743,2.7745,2.7807,2.7808,2.7809,2.7809,2.7886,2.7887,2.7889,0,0,0,0,0,0,0,0,0,0,0,0,0,2.762,2.7564,2.7663,2.7706,2.771,2.7742,2.7744,2.7745,2.7807,2.7808,2.7809,2.781,2.7885,2.7887,2.7889,2.7884,0,0,2.7896,2.7897,0,0,0,0,0,0,0,0,2.7616,2.7623,2.7698,2.7703,2.7708,2.7766,2.7736,2.7791,2.7807,2.777,2.7809,2.781,2.7845,2.7851,2.7863,2.7888,2.7891,2.7896,2.7898,2.7899,2.7899,0,0,0,0,0,0,0,2.7612,2.762,2.7694,2.7699,2.7705,2.772,2.7729,2.7747,2.7801,2.7773,2.7778,2.7787,2.7848,2.7861,2.7866,2.7892,2.7896,2.7898,2.79,2.79,2.7916,2.7915,0,0,0,0,0,0,2.7602,2.7617,2.7692,2.7697,2.7664,2.7721,2.7731,2.7746,2.7801,2.7811,2.7786,2.7789,2.7857,2.7863,2.7869,2.7866,2.7899,2.7901,2.7902,2.7916,2.7915,2.7914,0,0,0,0,0,0,2.76,2.7608,2.7689,2.7658,2.7669,2.7721,2.7738,2.7747,2.7761,2.7811,2.782,2.779,2.7858,2.7865,2.788,2.7869,2.7902,2.7904,2.7918,2.7916,2.7915,2.7859,0,0,0,0,0,0,2.7597,2.7607,2.7606,2.7658,2.7671,2.77,2.7737,2.7748,2.7765,2.777,2.7817,2.7825,2.7859,2.7876,2.7882,2.7873,2.7905,2.7919,2.7917,2.7915,2.7862,2.7856,2.7851,0,0,0,0,0,2.7593,2.7587,2.7606,2.7615,2.7671,2.7699,2.7706,2.7746,2.7764,2.7763,2.7795,2.7824,2.787,2.7877,2.7884,2.7875,2.792,2.7917,2.7915,2.7865,2.7857,2.7851,0,0,0,0,0,0,2.7531,2.7594,2.7616,2.7627,2.7657,2.7709,2.771,2.7737,2.7762,2.7766,2.7814,2.7824,2.7833,2.7856,2.7863,2.7873,2.7898,2.7897,2.7857,2.7851,2.7845,2.7839,2.7907,0,0,0,0,0,2.7519,2.7538,2.7591,2.7596,2.761,2.7657,2.767,2.7699,2.7732,2.7744,2.7778,2.7807,2.7828,2.7841,2.7863,2.7866,2.7877,2.7864,2.7858,2.7853,2.7851,2.7854,2.7849,2.7908,2.7908,2.7908,0,0,2.7494,2.7531,2.7539,2.7584,2.7611,2.7628,2.7667,2.7683,2.7696,2.7746,2.7762,2.7788,2.7824,2.7832,2.7838,2.7852,2.7838,2.7851,2.7846,2.7847,2.7852,2.7846,2.7841,2.7906,2.7906,2.7907,0,0,2.7457,2.7487,2.7494,2.752,2.7561,2.7592,2.7594,2.7642,2.7661,2.7678,2.7716,2.7731,2.7767,2.7791,2.7808,2.778,2.7807,2.7786,2.7756,2.7758,2.7753,2.7749,2.7738,2.7734,2.7784,2.7784,2.7784,0,2.742,2.7448,2.7493,2.7507,2.7525,2.7574,2.758,2.7603,2.7648,2.7659,2.7674,2.772,2.7747,2.7762,2.7755,2.7768,2.777,2.778,2.775,2.7747,2.7744,2.7734,2.773,2.7781,2.7781,2.7782,2.7782,0,2.74,2.7419,2.7419,2.7463,2.7482,2.7491,2.7537,2.755,2.7577,2.7606,2.7622,2.7658,2.7688,2.7693,2.7719,2.7712,2.7719,2.7742,2.7768,2.7735,2.7726,2.7723,2.7777,2.7778,2.7779,2.778,0,0,2.7326,2.7395,2.7394,2.7414,2.7463,2.7478,2.749,2.752,2.753,2.756,2.757,2.7599,2.7621,2.764,2.7669,2.7671,2.7645,2.7693,2.7695,2.7682,2.7638,2.762,2.7615,2.7664,2.7664,2.7663,2.7635,0,2.7295,2.7321,2.7361,2.7373,2.739,2.7436,2.7447,2.7477,2.7504,2.7522,2.7553,2.7573,2.76,2.7612,2.7616,2.7647,2.7637,2.765,2.7673,2.7673,2.7661,2.761,2.7591,2.7562,2.7632,2.7631,2.7631,0,2.7263,2.7291,2.7304,2.7352,2.736,2.7369,2.74,2.7417,2.7452,2.7472,2.7494,2.7526,2.754,2.7564,2.7583,2.7592,2.7603,2.762,2.762,2.7623,2.7649,2.761,2.7554,2.7549,2.7626,2.7626,2.7627,0,2.7206,2.7247,2.726,2.7276,2.7332,2.7337,2.736,2.7396,2.7412,2.7439,2.7449,2.7477,2.7492,2.7512,2.755,2.7565,2.7565,2.7593,2.758,2.7579,2.7577,2.7577,2.7521,2.7587,2.7587,2.7587,2.7587,0,2.7167,2.7173,2.7236,2.7243,2.7251,2.7298,2.7304,2.7331,2.7363,2.7376,2.7418,2.7429,2.748,2.7496,2.7526,2.7537,2.7544,2.7559,2.7567,2.7555,2.7553,2.7562,2.7565,2.7586,2.7586,2.7586,2.7586,0,2.7104,2.7147,2.7164,2.7216,2.7229,2.7232,2.7276,2.7284,2.7315,2.7331,2.7338,2.7385,2.7407,2.7448,2.7481,2.7501,2.7505,2.7519,2.7493,2.7498,2.7483,2.7483,2.743,2.7425,2.7495,2.7494,2.7494,0,2.7076,2.7082,2.7135,2.7147,2.7169,2.7188,2.7205,2.7251,2.7266,2.7307,2.731,2.7336,2.7358,2.7391,2.7428,2.7453,2.7468,2.7447,2.7471,2.7459,2.7466,2.7465,2.7465,2.7441,2.744,2.7439,2.7439,0,2.7021,2.7042,2.7065,2.7095,2.7114,2.714,2.7167,2.7175,2.7227,2.7242,2.7266,2.7283,2.7318,2.7342,2.7373,2.7395,2.7425,2.7431,2.7429,2.7416,2.7401,2.7408,2.7477,2.7432,2.7432,2.7433,2.7433,2.7434,2.6974,2.6982,2.702,2.7044,2.707,2.7095,2.7105,2.7138,2.7159,2.7191,2.7217,2.7238,2.7272,2.7317,2.7338,2.7355,2.7369,2.7366,2.7366,2.7364,2.7359,2.7399,2.7361,2.7361,2.7361,2.7361,2.7361,0,2.6921,2.6948,2.697,2.7008,2.7026,2.7055,2.7087,2.71,2.7118,2.7149,2.717,2.7197,2.7221,2.726,2.7287,2.7292,2.7306,2.7297,2.7297,2.7301,2.7345,2.7343,2.7286,2.7286,2.7286,2.7286,2.7286,2.7286,2.6895,2.6909,2.6934,2.696,2.6987,2.7009,2.7025,2.7048,2.7072,2.71,2.7121,2.7147,2.718,2.721,2.7232,2.7243,2.725,2.7237,2.7251,2.7291,2.7298,2.7305,2.7304,2.7238,2.7238,2.7206,2.7206,2.7206]}]]